QPF
0.00 0.00 0.00 0.00 0.00 0.00 0.01 0.00 0.00 0.00 0.01 0.01 0.00 0.01 0.01 0.02 0.01 0.01 0.01 0.03 0.04 0.03 0.02 0.01 0.01 0.02 0.03 0.04 0.04 0.04 0.04 0.06 0.16 0.19 0.18 0.17 0.15 0.15 0.13 0.11 0.09 0.10 0.09 0.10
0.00 0.00 0.00 0.00 0.00 0.00 0.00 0.00 0.00 0.00 0.01 0.01 0.00 0.01 0.02 0.01 0.00 0.01 0.01 0.02 0.06 0.08 0.06 0.03 0.02 0.02 0.02 0.04 0.04 0.04 0.04 0.07 0.13 0.15 0.15 0.14 0.14 0.12 0.10 0.09 0.08 0.07 0.07 0.08
0.00 0.00 0.00 0.00 0.00 0.00 0.00 0.00 0.00 0.00 0.00 0.00 0.00 0.03 0.04 0.01 0.01 0.01 0.03 0.02 0.04 0.07 0.06 0.02 0.02 0.02 0.03 0.03 0.03 0.04 0.04 0.06 0.09 0.08 0.08 0.09 0.11 0.09 0.07 0.06 0.06 0.06 0.05 0.05
0.00 0.00 0.00 0.00 0.00 0.00 0.00 0.00 0.00 0.00 0.00 0.00 0.01 0.03 0.05 0.03 0.03 0.04 0.04 0.04 0.06 0.10 0.08 0.03 0.01 0.02 0.03 0.03 0.02 0.04 0.04 0.03 0.03 0.03 0.05 0.07 0.07 0.06 0.04 0.04 0.05 0.04 0.04 0.03
0.00 0.00 0.00 0.00 0.00 0.00 0.00 0.00 0.00 0.00 0.00 0.00 0.01 0.03 0.07 0.06 0.05 0.07 0.07 0.05 0.05 0.10 0.06 0.03 0.03 0.02 0.02 0.02 0.02 0.03 0.03 0.03 0.03 0.04 0.05 0.06 0.05 0.04 0.04 0.04 0.04 0.04 0.03 0.03
0.00 0.00 0.00 0.00 0.00 0.00 0.00 0.00 0.00 0.00 0.00 0.01 0.01 0.03 0.07 0.07 0.08 0.10 0.12 0.06 0.03 0.07 0.04 0.02 0.02 0.02 0.02 0.02 0.02 0.03 0.02 0.02 0.03 0.03 0.03 0.05 0.06 0.06 0.07 0.08 0.09 0.09 0.09 0.06
0.01 0.00 0.00 0.00 0.00 0.00 0.00 0.00 0.02 0.03 0.03 0.03 0.02 0.04 0.06 0.05 0.05 0.07 0.06 0.05 0.05 0.06 0.06 0.04 0.02 0.02 0.02 0.02 0.03 0.02 0.02 0.02 0.02 0.02 0.03 0.03 0.05 0.06 0.07 0.07 0.08 0.09 0.09 0.07
0.00 0.01 0.00 0.00 0.00 0.00 0.00 0.00 0.02 0.06 0.05 0.05 0.03 0.05 0.06 0.06 0.07 0.10 0.07 0.05 0.04 0.03 0.03 0.03 0.04 0.04 0.04 0.04 0.03 0.02 0.02 0.03 0.02 0.02 0.02 0.03 0.03 0.03 0.04 0.06 0.07 0.08 0.08 0.06
0.00 0.01 0.01 0.00 0.00 0.00 0.00 0.00 0.01 0.02 0.02 0.05 0.04 0.05 0.08 0.05 0.04 0.07 0.08 0.03 0.02 0.01 0.02 0.05 0.05 0.04 0.03 0.02 0.02 0.01 0.02 0.01 0.01 0.01 0.02 0.03 0.03 0.03 0.03 0.03 0.04 0.05 0.06 0.04
0.01 0.01 0.00 0.00 0.00 0.00 0.00 0.00 0.01 0.01 0.04 0.05 0.06 0.10 0.19 0.14 0.06 0.05 0.06 0.03 0.02 0.01 0.02 0.04 0.04 0.03 0.02 0.02 0.01 0.02 0.02 0.02 0.01 0.01 0.01 0.02 0.03 0.04 0.03 0.02 0.02 0.03 0.03 0.02
0.02 0.02 0.00 0.00 0.00 0.01 0.01 0.01 0.01 0.01 0.02 0.05 0.09 0.16 0.19 0.16 0.09 0.06 0.06 0.05 0.04 0.03 0.04 0.03 0.04 0.04 0.03 0.02 0.01 0.01 0.01 0.01 0.01 0.01 0.01 0.01 0.02 0.02 0.02 0.02 0.02 0.02 0.02 0.01
0.01 0.02 0.01 0.00 0.01 0.01 0.00 0.01 0.01 0.02 0.02 0.03 0.08 0.13 0.09 0.11 0.08 0.06 0.06 0.06 0.06 0.05 0.04 0.05 0.05 0.04 0.03 0.02 0.01 0.02 0.01 0.01 0.01 0.01 0.01 0.02 0.02 0.02 0.02 0.02 0.02 0.02 0.02 0.01
0.01 0.03 0.04 0.05 0.03 0.01 0.01 0.01 0.01 0.02 0.04 0.04 0.08 0.14 0.07 0.06 0.05 0.05 0.04 0.06 0.09 0.06 0.05 0.05 0.06 0.04 0.03 0.02 0.02 0.02 0.02 0.02 0.02 0.02 0.02 0.02 0.02 0.02 0.01 0.01 0.01 0.01 0.01 0.02
0.00 0.03 0.07 0.08 0.05 0.02 0.02 0.01 0.00 0.01 0.05 0.08 0.11 0.13 0.09 0.08 0.09 0.09 0.06 0.05 0.07 0.07 0.06 0.06 0.05 0.06 0.05 0.03 0.03 0.03 0.03 0.02 0.02 0.01 0.02 0.02 0.02 0.01 0.01 0.01 0.01 0.01 0.01 0.01
0.01 0.03 0.03 0.03 0.02 0.02 0.02 0.02 0.01 0.02 0.02 0.06 0.10 0.09 0.09 0.10 0.11 0.15 0.08 0.06 0.07 0.07 0.06 0.06 0.06 0.05 0.05 0.03 0.03 0.02 0.02 0.02 0.01 0.01 0.02 0.02 0.02 0.01 0.01 0.02 0.02 0.01 0.01 0.01
0.00 0.03 0.03 0.03 0.02 0.03 0.02 0.01 0.02 0.02 0.01 0.03 0.08 0.08 0.05 0.08 0.11 0.14 0.09 0.06 0.08 0.07 0.06 0.06 0.05 0.05 0.05 0.04 0.03 0.02 0.02 0.02 0.02 0.02 0.02 0.01 0.01 0.01 0.01 0.01 0.02 0.02 0.01 0.01
0.01 0.02 0.04 0.04 0.02 0.03 0.06 0.03 0.03 0.03 0.02 0.03 0.06 0.08 0.05 0.06 0.11 0.18 0.14 0.08 0.07 0.06 0.05 0.05 0.04 0.04 0.04 0.05 0.04 0.03 0.03 0.02 0.02 0.01 0.01 0.01 0.01 0.01 0.01 0.02 0.03 0.04 0.03 0.02
0.01 0.03 0.05 0.06 0.05 0.07 0.06 0.02 0.03 0.04 0.02 0.03 0.04 0.04 0.04 0.04 0.05 0.08 0.09 0.07 0.06 0.05 0.04 0.04 0.03 0.03 0.04 0.05 0.04 0.04 0.03 0.03 0.02 0.02 0.01 0.01 0.01 0.01 0.02 0.03 0.04 0.05 0.05 0.03
0.01 0.03 0.06 0.07 0.08 0.10 0.06 0.02 0.03 0.05 0.05 0.02 0.03 0.04 0.03 0.04 0.06 0.05 0.06 0.06 0.06 0.06 0.07 0.09 0.09 0.06 0.03 0.03 0.03 0.03 0.03 0.03 0.02 0.02 0.02 0.02 0.01 0.02 0.02 0.03 0.05 0.06 0.05 0.04
0.01 0.03 0.07 0.06 0.08 0.13 0.11 0.02 0.01 0.04 0.08 0.03 0.04 0.05 0.05 0.07 0.12 0.09 0.06 0.04 0.04 0.06 0.07 0.06 0.06 0.03 0.02 0.02 0.02 0.03 0.02 0.03 0.03 0.03 0.02 0.02 0.02 0.02 0.02 0.04 0.06 0.06 0.05 0.04
0.02 0.05 0.07 0.07 0.09 0.10 0.03 0.01 0.03 0.09 0.11 0.07 0.03 0.03 0.05 0.10 0.12 0.06 0.03 0.02 0.03 0.04 0.04 0.03 0.02 0.02 0.02 0.02 0.03 0.04 0.03 0.03 0.03 0.03 0.04 0.03 0.02 0.02 0.03 0.04 0.05 0.05 0.05 0.04
0.02 0.04 0.04 0.06 0.08 0.07 0.02 0.01 0.04 0.07 0.08 0.06 0.03 0.02 0.03 0.05 0.05 0.03 0.02 0.02 0.03 0.04 0.04 0.03 0.03 0.03 0.03 0.03 0.04 0.04 0.03 0.02 0.02 0.04 0.05 0.04 0.02 0.02 0.02 0.02 0.03 0.04 0.03 0.04
0.03 0.04 0.04 0.05 0.06 0.03 0.01 0.01 0.02 0.03 0.04 0.04 0.04 0.03 0.04 0.03 0.03 0.02 0.02 0.03 0.05 0.06 0.06 0.04 0.04 0.04 0.04 0.05 0.05 0.05 0.05 0.03 0.02 0.04 0.03 0.03 0.01 0.01 0.01 0.02 0.02 0.02 0.02 0.02
0.01 0.00 0.01 0.02 0.01 0.00 0.00 0.01 0.01 0.01 0.02 0.02 0.03 0.02 0.02 0.04 0.03 0.02 0.02 0.03 0.04 0.04 0.03 0.03 0.04 0.04 0.05 0.05 0.05 0.05 0.05 0.04 0.04 0.03 0.02 0.02 0.02 0.01 0.01 0.01 0.01 0.01 0.02 0.01
0.01 0.00 0.01 0.03 0.02 0.01 0.01 0.00 0.01 0.01 0.00 0.01 0.01 0.01 0.01 0.02 0.03 0.02 0.02 0.02 0.02 0.02 0.03 0.03 0.03 0.04 0.04 0.03 0.04 0.04 0.03 0.03 0.03 0.02 0.02 0.02 0.02 0.02 0.01 0.01 0.01 0.01 0.01 0.01
0.01 0.00 0.01 0.02 0.02 0.02 0.01 0.00 0.00 0.01 0.01 0.01 0.01 0.01 0.01 0.01 0.02 0.02 0.03 0.03 0.02 0.03 0.03 0.04 0.03 0.02 0.02 0.02 0.02 0.02 0.03 0.02 0.02 0.02 0.02 0.03 0.02 0.01 0.01 0.01 0.00 0.00 0.00 0.00
MSLP
1008.77 1008.95 1008.96 1008.81 1008.57 1008.30 1008.07 1007.93 1007.88 1007.93 1008.03 1008.14 1008.22 1008.26 1008.25 1008.24 1008.29 1008.46 1008.80 1009.34 1010.08 1010.96 1011.93 1012.89 1013.74 1014.42 1014.89 1015.15 1015.22 1015.18 1015.09 1015.01 1015.01 1015.10 1015.29 1015.55 1015.83 1016.11 1016.33 1016.49 1016.56 1016.57 1016.53 1016.46
1008.89 1008.90 1008.74 1008.47 1008.16 1007.89 1007.73 1007.71 1007.83 1008.04 1008.28 1008.48 1008.60 1008.62 1008.54 1008.44 1008.40 1008.50 1008.80 1009.35 1010.14 1011.11 1012.17 1013.21 1014.13 1014.84 1015.32 1015.55 1015.59 1015.51 1015.38 1015.29 1015.28 1015.38 1015.58 1015.83 1016.09 1016.33 1016.50 1016.59 1016.60 1016.57 1016.50 1016.43
1008.91 1008.76 1008.47 1008.12 1007.79 1007.59 1007.56 1007.73 1008.07 1008.49 1008.92 1009.25 1009.43 1009.44 1009.30 1009.10 1008.93 1008.91 1009.13 1009.63 1010.40 1011.38 1012.48 1013.56 1014.51 1015.25 1015.72 1015.94 1015.96 1015.85 1015.71 1015.61 1015.61 1015.72 1015.92 1016.17 1016.42 1016.62 1016.75 1016.78 1016.74 1016.66 1016.57 1016.50
1008.90 1008.64 1008.27 1007.89 1007.61 1007.53 1007.69 1008.10 1008.69 1009.36 1009.99 1010.47 1010.72 1010.72 1010.50 1010.17 1009.84 1009.66 1009.73 1010.11 1010.80 1011.74 1012.82 1013.91 1014.87 1015.62 1016.10 1016.32 1016.34 1016.23 1016.09 1016.00 1016.01 1016.13 1016.34 1016.59 1016.83 1017.01 1017.10 1017.09 1017.01 1016.88 1016.76 1016.67
1008.98 1008.64 1008.24 1007.89 1007.71 1007.78 1008.14 1008.80 1009.64 1010.55 1011.38 1011.99 1012.30 1012.28 1011.98 1011.49 1010.98 1010.60 1010.48 1010.69 1011.25 1012.09 1013.12 1014.18 1015.15 1015.92 1016.43 1016.68 1016.72 1016.63 1016.51 1016.44 1016.47 1016.60 1016.82 1017.07 1017.31 1017.47 1017.53 1017.49 1017.38 1017.22 1017.06 1016.94
1009.18 1008.83 1008.44 1008.15 1008.07 1008.30 1008.86 1009.72 1010.79 1011.90 1012.89 1013.60 1013.95 1013.89 1013.48 1012.84 1012.13 1011.54 1011.20 1011.22 1011.61 1012.34 1013.29 1014.33 1015.31 1016.11 1016.67 1016.98 1017.07 1017.03 1016.95 1016.91 1016.95 1017.09 1017.31 1017.56 1017.79 1017.95 1018.00 1017.95 1017.81 1017.62 1017.44 1017.28
1009.53 1009.19 1008.85 1008.62 1008.64 1008.98 1009.68 1010.69 1011.90 1013.14 1014.23 1015.00 1015.35 1015.25 1014.75 1013.96 1013.07 1012.27 1011.73 1011.56 1011.80 1012.41 1013.29 1014.31 1015.31 1016.16 1016.80 1017.19 1017.37 1017.40 1017.37 1017.35 1017.41 1017.55 1017.77 1018.01 1018.24 1018.39 1018.44 1018.38 1018.24 1018.04 1017.83 1017.63
1009.96 1009.67 1009.37 1009.20 1009.27 1009.67 1010.42 1011.49 1012.75 1014.03 1015.15 1015.93 1016.27 1016.13 1015.55 1014.65 1013.63 1012.69 1011.99 1011.67 1011.78 1012.29 1013.12 1014.13 1015.16 1016.09 1016.82 1017.32 1017.59 1017.70 1017.73 1017.74 1017.80 1017.94 1018.13 1018.36 1018.58 1018.73 1018.79 1018.74 1018.60 1018.40 1018.18 1017.96
1010.41 1010.17 1009.91 1009.76 1009.83 1010.21 1010.93 1011.95 1013.16 1014.39 1015.47 1016.22 1016.55 1016.39 1015.79 1014.86 1013.78 1012.77 1011.99 1011.58 1011.61 1012.06 1012.86 1013.87 1014.94 1015.95 1016.78 1017.38 1017.75 1017.95 1018.02 1018.06 1018.11 1018.22 1018.39 1018.59 1018.78 1018.93 1019.00 1018.97 1018.85 1018.67 1018.46 1018.23
1010.78 1010.60 1010.37 1010.20 1010.21 1010.50 1011.09 1011.97 1013.04 1014.16 1015.16 1015.87 1016.19 1016.06 1015.50 1014.63 1013.60 1012.61 1011.83 1011.41 1011.41 1011.83 1012.61 1013.63 1014.75 1015.81 1016.73 1017.42 1017.89 1018.15 1018.26 1018.31 1018.34 1018.41 1018.53 1018.69 1018.86 1019.00 1019.07 1019.08 1019.00 1018.85 1018.66 1018.45
1011.03 1010.90 1010.68 1010.47 1010.38 1010.52 1010.92 1011.60 1012.47 1013.43 1014.32 1014.99 1015.33 1015.29 1014.86 1014.13 1013.25 1012.39 1011.70 1011.33 1011.35 1011.77 1012.54 1013.56 1014.69 1015.79 1016.75 1017.51 1018.03 1018.34 1018.47 1018.51 1018.52 1018.54 1018.60 1018.71 1018.84 1018.96 1019.05 1019.09 1019.06 1018.96 1018.81 1018.63
1011.18 1011.10 1010.88 1010.62 1010.41 1010.36 1010.54 1010.98 1011.64 1012.42 1013.20 1013.85 1014.25 1014.34 1014.11 1013.61 1012.96 1012.30 1011.77 1011.50 1011.57 1012.00 1012.75 1013.74 1014.84 1015.93 1016.90 1017.67 1018.22 1018.54 1018.68 1018.70 1018.67 1018.64 1018.64 1018.69 1018.79 1018.90 1019.01 1019.08 1019.10 1019.06 1018.97 1018.83
1011.29 1011.25 1011.04 1010.72 1010.39 1010.17 1010.13 1010.34 1010.78 1011.39 1012.07 1012.71 1013.21 1013.47 1013.49 1013.26 1012.89 1012.48 1012.15 1012.01 1012.14 1012.57 1013.28 1014.20 1015.22 1016.25 1017.17 1017.92 1018.45 1018.77 1018.90 1018.90 1018.83 1018.75 1018.70 1018.71 1018.77 1018.87 1018.99 1019.10 1019.17 1019.19 1019.15 1019.06
1011.41 1011.43 1011.24 1010.88 1010.46 1010.09 1009.87 1009.87 1010.11 1010.57 1011.17 1011.82 1012.41 1012.87 1013.14 1013.21 1013.13 1012.98 1012.86 1012.85 1013.03 1013.43 1014.07 1014.88 1015.78 1016.70 1017.53 1018.21 1018.70 1018.99 1019.10 1019.09 1019.00 1018.89 1018.81 1018.79 1018.83 1018.92 1019.05 1019.19 1019.31 1019.38 1019.40 1019.36
1011.62 1011.70 1011.54 1011.18 1010.71 1010.24 1009.87 1009.70 1009.78 1010.11 1010.65 1011.31 1012.00 1012.63 1013.13 1013.47 1013.67 1013.76 1013.81 1013.91 1014.12 1014.48 1015.01 1015.67 1016.42 1017.19 1017.90 1018.48 1018.92 1019.18 1019.27 1019.25 1019.16 1019.05 1018.96 1018.93 1018.97 1019.07 1019.21 1019.37 1019.52 1019.64 1019.71 1019.71
1011.91 1012.06 1011.96 1011.63 1011.15 1010.63 1010.17 1009.89 1009.85 1010.07 1010.54 1011.20 1011.96 1012.72 1013.41 1013.97 1014.39 1014.67 1014.87 1015.05 1015.25 1015.55 1015.94 1016.45 1017.02 1017.62 1018.19 1018.67 1019.04 1019.27 1019.37 1019.36 1019.30 1019.21 1019.14 1019.12 1019.17 1019.28 1019.44 1019.62 1019.80 1019.94 1020.04 1020.06
1012.25 1012.47 1012.44 1012.17 1011.73 1011.20 1010.71 1010.36 1010.23 1010.37 1010.78 1011.41 1012.20 1013.04 1013.86 1014.57 1015.14 1015.57 1015.87 1016.09 1016.27 1016.48 1016.75 1017.09 1017.49 1017.93 1018.36 1018.74 1019.05 1019.26 1019.37 1019.40 1019.38 1019.34 1019.32 1019.34 1019.41 1019.54 1019.71 1019.91 1020.09 1020.25 1020.36 1020.40
1012.53 1012.82 1012.87 1012.69 1012.32 1011.84 1011.35 1010.98 1010.80 1010.88 1011.23 1011.82 1012.59 1013.45 1014.33 1015.13 1015.79 1016.30 1016.66 1016.90 1017.06 1017.19 1017.35 1017.54 1017.79 1018.08 1018.39 1018.69 1018.96 1019.16 1019.30 1019.38 1019.42 1019.45 1019.48 1019.55 1019.66 1019.81 1020.00 1020.19 1020.38 1020.53 1020.63 1020.67
1012.65 1013.00 1013.14 1013.05 1012.78 1012.37 1011.94 1011.58 1011.38 1011.42 1011.71 1012.24 1012.97 1013.82 1014.70 1015.53 1016.24 1016.80 1017.19 1017.44 1017.58 1017.66 1017.73 1017.82 1017.95 1018.13 1018.35 1018.59 1018.82 1019.03 1019.20 1019.33 1019.44 1019.53 1019.64 1019.75 1019.90 1020.07 1020.26 1020.45 1020.63 1020.76 1020.85 1020.89
1012.54 1012.93 1013.15 1013.16 1012.99 1012.69 1012.34 1012.03 1011.85 1011.86 1012.11 1012.59 1013.27 1014.08 1014.93 1015.76 1016.48 1017.06 1017.48 1017.74 1017.88 1017.94 1017.96 1017.99 1018.05 1018.16 1018.31 1018.51 1018.72 1018.94 1019.14 1019.32 1019.49 1019.64 1019.80 1019.96 1020.14 1020.33 1020.52 1020.70 1020.86 1020.97 1021.04 1021.06
1012.18 1012.59 1012.87 1012.98 1012.92 1012.74 1012.49 1012.26 1012.12 1012.15 1012.39 1012.83 1013.45 1014.21 1015.03 1015.84 1016.56 1017.16 1017.60 1017.89 1018.05 1018.12 1018.13 1018.14 1018.17 1018.25 1018.37 1018.54 1018.75 1018.97 1019.19 1019.41 1019.62 1019.82 1020.01 1020.21 1020.40 1020.60 1020.78 1020.95 1021.09 1021.18 1021.23 1021.24
1011.62 1012.04 1012.36 1012.55 1012.60 1012.54 1012.41 1012.28 1012.23 1012.30 1012.54 1012.97 1013.56 1014.28 1015.06 1015.85 1016.57 1017.18 1017.65 1017.98 1018.18 1018.29 1018.33 1018.35 1018.39 1018.46 1018.58 1018.74 1018.94 1019.17 1019.40 1019.64 1019.87 1020.09 1020.30 1020.50 1020.70 1020.89 1021.07 1021.22 1021.34 1021.42 1021.45 1021.44
1010.96 1011.37 1011.72 1011.98 1012.14 1012.20 1012.20 1012.19 1012.22 1012.37 1012.65 1013.08 1013.66 1014.35 1015.10 1015.87 1016.59 1017.21 1017.72 1018.09 1018.35 1018.51 1018.60 1018.66 1018.73 1018.82 1018.94 1019.11 1019.31 1019.53 1019.77 1020.00 1020.23 1020.45 1020.66 1020.86 1021.05 1021.22 1021.38 1021.51 1021.61 1021.68 1021.71 1021.70
1010.32 1010.71 1011.08 1011.40 1011.65 1011.82 1011.95 1012.07 1012.22 1012.44 1012.78 1013.24 1013.82 1014.49 1015.22 1015.97 1016.68 1017.31 1017.84 1018.25 1018.56 1018.77 1018.92 1019.03 1019.14 1019.26 1019.40 1019.58 1019.79 1020.01 1020.24 1020.46 1020.68 1020.88 1021.07 1021.25 1021.41 1021.56 1021.70 1021.81 1021.90 1021.96 1021.98 1021.97
1009.81 1010.17 1010.55 1010.92 1011.25 1011.53 1011.78 1012.02 1012.28 1012.60 1013.00 1013.49 1014.08 1014.74 1015.45 1016.17 1016.85 1017.47 1018.01 1018.44 1018.78 1019.04 1019.24 1019.40 1019.55 1019.70 1019.88 1020.07 1020.29 1020.51 1020.73 1020.94 1021.14 1021.32 1021.48 1021.63 1021.76 1021.87 1021.98 1022.07 1022.14 1022.19 1022.22 1022.22
1009.45 1009.80 1010.19 1010.60 1011.00 1011.38 1011.74 1012.09 1012.46 1012.86 1013.31 1013.84 1014.43 1015.07 1015.75 1016.43 1017.08 1017.67 1018.19 1018.62 1018.97 1019.25 1019.48 1019.68 1019.86 1020.06 1020.26 1020.48 1020.71 1020.94 1021.16 1021.36 1021.54 1021.70 1021.83 1021.93 1022.02 1022.09 1022.16 1022.22 1022.27 1022.31 1022.34 1022.35
Thickness
5753 5747 5749 5762 5771 5774 5777 5774 5775 5782 5791 5778 5771 5760 5761 5765 5762 5756 5751 5744 5737 5734 5732 5730 5728 5725 5721 5718 5715 5712 5709 5706 5705 5701 5698 5694 5692 5692 5690 5689 5687 5686 5686 5687
5746 5744 5764 5778 5782 5777 5775 5771 5776 5783 5789 5775 5766 5762 5765 5767 5763 5759 5752 5743 5735 5728 5723 5720 5719 5717 5713 5710 5707 5704 5701 5698 5696 5694 5691 5688 5686 5685 5684 5682 5680 5679 5680 5680
5743 5759 5774 5771 5769 5764 5768 5771 5774 5774 5778 5776 5762 5750 5755 5760 5764 5759 5752 5744 5736 5726 5718 5714 5712 5709 5706 5702 5699 5697 5694 5691 5688 5688 5686 5683 5680 5678 5676 5674 5673 5673 5672 5672
5753 5767 5766 5761 5762 5763 5758 5779 5778 5772 5762 5755 5756 5731 5741 5750 5750 5748 5744 5738 5731 5724 5716 5711 5707 5702 5699 5696 5693 5689 5687 5684 5682 5681 5679 5675 5672 5669 5668 5667 5666 5666 5665 5665
5751 5762 5758 5754 5763 5768 5767 5781 5775 5769 5761 5753 5754 5734 5737 5745 5737 5736 5736 5733 5725 5720 5712 5705 5702 5697 5693 5690 5686 5682 5679 5677 5675 5673 5671 5668 5665 5663 5662 5661 5660 5659 5659 5658
5756 5769 5767 5764 5773 5776 5774 5770 5766 5763 5755 5732 5743 5733 5726 5736 5734 5731 5732 5730 5722 5715 5708 5701 5697 5692 5686 5683 5679 5675 5671 5668 5667 5664 5662 5660 5657 5655 5653 5653 5652 5652 5652 5651
5741 5754 5766 5770 5759 5765 5762 5744 5724 5716 5717 5722 5742 5732 5727 5740 5742 5734 5726 5723 5717 5711 5703 5695 5688 5683 5678 5674 5671 5667 5663 5660 5658 5656 5654 5652 5650 5648 5646 5645 5644 5644 5644 5643
5726 5732 5754 5761 5756 5750 5750 5743 5718 5700 5701 5715 5728 5718 5724 5740 5739 5735 5727 5722 5713 5706 5698 5690 5683 5677 5672 5667 5663 5659 5656 5652 5651 5648 5645 5644 5643 5641 5639 5638 5637 5636 5635 5635
5723 5729 5758 5763 5766 5758 5744 5743 5748 5729 5721 5709 5714 5716 5716 5729 5726 5723 5719 5713 5705 5698 5691 5683 5676 5671 5666 5661 5656 5652 5649 5646 5643 5641 5638 5636 5634 5633 5631 5630 5629 5628 5627 5628
5730 5722 5744 5758 5761 5759 5756 5750 5738 5722 5703 5695 5701 5701 5695 5703 5709 5711 5709 5703 5697 5690 5682 5675 5669 5664 5659 5654 5649 5645 5641 5638 5635 5633 5630 5628 5626 5625 5623 5622 5620 5619 5619 5619
5732 5717 5729 5742 5738 5736 5741 5738 5735 5730 5724 5701 5688 5685 5700 5698 5704 5705 5702 5697 5689 5683 5674 5667 5661 5655 5651 5646 5642 5637 5633 5631 5627 5624 5622 5619 5617 5616 5615 5614 5613 5612 5612 5612
5728 5718 5712 5726 5746 5751 5741 5736 5731 5711 5708 5711 5697 5683 5707 5705 5702 5700 5695 5688 5681 5675 5666 5659 5653 5647 5643 5638 5634 5629 5626 5623 5620 5617 5613 5611 5609 5607 5606 5605 5604 5604 5604 5604
5721 5709 5692 5701 5719 5732 5731 5734 5733 5727 5715 5705 5691 5681 5702 5700 5695 5690 5686 5678 5671 5664 5657 5650 5645 5640 5636 5631 5627 5623 5620 5616 5613 5609 5605 5602 5600 5598 5597 5596 5596 5596 5596 5596
5721 5705 5691 5682 5696 5712 5716 5725 5730 5722 5705 5697 5694 5686 5689 5689 5683 5677 5674 5668 5662 5655 5650 5644 5638 5633 5628 5624 5620 5616 5612 5609 5605 5602 5597 5594 5592 5591 5590 5589 5588 5588 5588 5588
5719 5701 5701 5705 5716 5719 5718 5721 5723 5717 5710 5700 5695 5690 5685 5683 5678 5670 5664 5660 5652 5647 5642 5637 5630 5625 5620 5616 5612 5608 5604 5601 5597 5594 5590 5587 5585 5584 5582 5581 5580 5580 5580 5580
5715 5698 5698 5700 5712 5714 5711 5716 5717 5713 5710 5701 5692 5681 5684 5680 5676 5666 5659 5653 5647 5641 5636 5630 5624 5619 5614 5609 5605 5600 5596 5593 5590 5586 5583 5581 5578 5576 5575 5574 5573 5572 5571 5571
5710 5697 5689 5690 5707 5705 5691 5704 5707 5705 5704 5699 5685 5678 5680 5670 5664 5659 5654 5649 5643 5638 5632 5625 5619 5613 5608 5603 5599 5594 5590 5586 5583 5580 5577 5574 5572 5570 5569 5568 5565 5564 5563 5563
5706 5699 5693 5690 5691 5672 5691 5712 5707 5698 5695 5695 5688 5681 5677 5668 5661 5657 5653 5646 5639 5633 5626 5620 5614 5608 5603 5598 5593 5589 5584 5580 5576 5573 5571 5568 5566 5564 5563 5561 5559 5558 5556 5556
5712 5699 5689 5684 5678 5676 5688 5701 5701 5689 5681 5688 5680 5675 5670 5665 5657 5648 5647 5643 5635 5628 5621 5615 5610 5605 5599 5593 5588 5584 5579 5575 5571 5568 5566 5564 5562 5559 5557 5555 5554 5553 5551 5550
5711 5703 5689 5684 5672 5663 5676 5698 5706 5692 5670 5682 5678 5670 5665 5660 5647 5638 5640 5637 5629 5622 5616 5611 5607 5601 5595 5589 5585 5580 5575 5571 5567 5565 5562 5560 5558 5555 5553 5550 5549 5548 5548 5547
5696 5693 5686 5682 5673 5671 5689 5701 5700 5670 5664 5678 5675 5669 5663 5656 5649 5642 5637 5631 5624 5618 5612 5607 5602 5597 5591 5586 5581 5576 5571 5567 5564 5562 5559 5556 5554 5552 5550 5548 5546 5545 5545 5544
5692 5688 5685 5682 5671 5665 5692 5693 5679 5672 5679 5677 5671 5666 5658 5651 5645 5639 5632 5625 5619 5614 5608 5604 5598 5592 5587 5582 5577 5573 5568 5566 5563 5559 5556 5553 5551 5550 5548 5545 5544 5543 5542 5542
5695 5692 5690 5683 5675 5683 5689 5686 5685 5684 5677 5672 5667 5661 5655 5647 5641 5635 5628 5622 5616 5611 5605 5601 5595 5589 5584 5579 5575 5571 5567 5564 5561 5557 5553 5551 5549 5547 5545 5544 5543 5542 5542 5542
5700 5704 5695 5685 5682 5685 5686 5686 5685 5681 5675 5671 5666 5660 5653 5645 5638 5631 5625 5619 5613 5608 5603 5598 5593 5587 5582 5578 5574 5570 5566 5563 5559 5555 5553 5550 5548 5546 5544 5543 5543 5542 5542 5542
5698 5699 5691 5682 5683 5683 5682 5681 5679 5676 5673 5668 5662 5657 5650 5643 5636 5630 5623 5617 5612 5607 5602 5597 5591 5586 5581 5578 5574 5570 5566 5562 5558 5555 5553 5551 5549 5547 5545 5542 5540 5541 5539 5539
5699 5694 5688 5682 5686 5682 5676 5679 5678 5671 5666 5663 5657 5652 5648 5642 5635 5629 5622 5617 5612 5606 5601 5596 5592 5587 5583 5579 5574 5571 5567 5563 5559 5555 5553 5552 5551 5549 5548 5545 5543 5540 5540 5540